[[{"header":{"parameterUnit":"m.s-1","parameterCategory":1,"la1":30.2991,"la2":30.254,"lo1":-89.0895,"lo2":-89.0444,"dy":0.0017,"dx":0.0017,"nx":28,"ny":28,"refTime":"2025-03-17T03:00:00:Z","depth":0,"parameterNumber":2,"parameterNumberName":"U-component_of_WINDS"},"data":[0,0,0,0,0,0,0,0,0,0,0,0,0,0,0,0,0,0,0,0,0,0,0,0,0,0,0,0,0,0,0,0,0,0,0,0,0,0,0,0,0,0,0,0,0,0,0,0,0,0,0,0,0,0,0,0,0,0,-2.502,-2.502,0,-2.5048,-2.5049,-2.5049,-2.5035,-2.5034,-2.5034,-2.5033,-2.5063,-2.5064,-2.5066,0,0,0,0,0,0,0,0,0,0,0,0,0,-2.4955,-2.4957,-2.502,-2.502,-2.502,-2.5048,-2.5049,-2.5049,-2.5035,-2.5034,-2.5033,-2.5033,-2.5062,-2.5064,-2.5066,0,0,0,0,0,0,0,0,0,0,0,0,0,-2.4984,-2.4957,-2.502,-2.5017,-2.5017,-2.5048,-2.5049,-2.5049,-2.5035,-2.5034,-2.5033,-2.5032,-2.5062,-2.5064,-2.5066,-2.5102,0,0,-2.5073,-2.5074,0,0,0,0,0,0,0,0,-2.4982,-2.4986,-2.5017,-2.5017,-2.5017,-2.5037,-2.5037,-2.5067,-2.5036,-2.5028,-2.5033,-2.5032,-2.5055,-2.5058,-2.5066,-2.5103,-2.5104,-2.5073,-2.5074,-2.5075,-2.5076,0,0,0,0,0,0,0,-2.498,-2.4985,-2.5031,-2.5017,-2.5018,-2.5015,-2.5018,-2.5042,-2.5048,-2.5029,-2.5028,-2.5032,-2.5055,-2.5063,-2.5066,-2.5105,-2.5073,-2.5075,-2.5076,-2.5077,-2.5174,-2.5175,0,0,0,0,0,0,-2.4978,-2.4983,-2.503,-2.5032,-2.4997,-2.5017,-2.502,-2.5032,-2.5047,-2.5049,-2.5033,-2.5031,-2.506,-2.5064,-2.5067,-2.511,-2.5075,-2.5077,-2.5079,-2.5173,-2.5174,-2.5176,0,0,0,0,0,0,-2.4977,-2.4982,-2.5029,-2.5007,-2.5013,-2.5019,-2.5032,-2.5033,-2.5041,-2.505,-2.5051,-2.504,-2.5059,-2.5064,-2.5093,-2.5111,-2.5078,-2.508,-2.5171,-2.5173,-2.5175,-2.5196,0,0,0,0,0,0,-2.4975,-2.4982,-2.4995,-2.5008,-2.5014,-2.5054,-2.5034,-2.5034,-2.5045,-2.5043,-2.5057,-2.5059,-2.5059,-2.509,-2.5096,-2.5113,-2.5082,-2.517,-2.5172,-2.5174,-2.5194,-2.5198,-2.5202,0,0,0,0,0,-2.4973,-2.5,-2.4996,-2.5001,-2.503,-2.5055,-2.5059,-2.5059,-2.5047,-2.506,-2.5066,-2.5058,-2.5108,-2.5093,-2.5099,-2.5118,-2.5168,-2.5171,-2.5174,-2.5192,-2.5197,-2.5202,0,0,0,0,0,0,-2.4989,-2.5001,-2.4997,-2.5029,-2.5041,-2.5053,-2.5069,-2.5064,-2.508,-2.5078,-2.5077,-2.5081,-2.5111,-2.5118,-2.51,-2.5154,-2.5137,-2.5141,-2.5148,-2.5153,-2.5158,-2.5155,-2.5084,0,0,0,0,0,-2.4996,-2.5014,-2.5025,-2.5052,-2.5058,-2.5063,-2.5074,-2.5073,-2.5085,-2.509,-2.5098,-2.5111,-2.513,-2.5142,-2.516,-2.5195,-2.5198,-2.5211,-2.5215,-2.5219,-2.5222,-2.5242,-2.5248,-2.5185,-2.5185,-2.5185,0,0,-2.5011,-2.502,-2.5032,-2.5055,-2.5065,-2.5084,-2.5067,-2.5089,-2.5103,-2.5094,-2.5121,-2.5128,-2.5143,-2.5175,-2.519,-2.5182,-2.5241,-2.5223,-2.5225,-2.5226,-2.5245,-2.5251,-2.5256,-2.5187,-2.5186,-2.5186,0,0,-2.5048,-2.5057,-2.5081,-2.5091,-2.5105,-2.5109,-2.5115,-2.5128,-2.5131,-2.516,-2.5153,-2.5171,-2.5203,-2.5214,-2.5224,-2.5268,-2.5261,-2.5274,-2.5295,-2.5314,-2.5319,-2.5324,-2.5339,-2.5345,-2.5277,-2.5277,-2.5277,0,-2.5065,-2.5094,-2.5094,-2.5116,-2.5127,-2.5119,-2.5144,-2.5154,-2.5173,-2.5181,-2.5172,-2.5213,-2.5222,-2.5257,-2.5268,-2.5277,-2.5283,-2.5271,-2.5319,-2.5323,-2.5327,-2.5342,-2.5348,-2.5278,-2.5278,-2.5278,-2.5278,0,-2.5114,-2.5134,-2.5152,-2.5171,-2.5184,-2.5207,-2.5211,-2.5225,-2.5223,-2.5228,-2.5257,-2.5269,-2.5289,-2.5297,-2.5296,-2.5333,-2.5327,-2.5318,-2.5301,-2.5334,-2.5348,-2.5354,-2.528,-2.528,-2.5279,-2.5279,0,0,-2.516,-2.518,-2.5187,-2.5195,-2.5212,-2.5228,-2.5252,-2.5271,-2.5283,-2.5297,-2.5317,-2.5346,-2.5338,-2.5349,-2.5349,-2.5366,-2.54,-2.5356,-2.5356,-2.5363,-2.5442,-2.5448,-2.5454,-2.5397,-2.5398,-2.5399,-2.544,0,-2.5198,-2.5239,-2.524,-2.5277,-2.5296,-2.5291,-2.5311,-2.5324,-2.533,-2.5347,-2.5354,-2.5374,-2.5362,-2.5369,-2.5385,-2.5393,-2.5416,-2.539,-2.5415,-2.5416,-2.5411,-2.5461,-2.5467,-2.5506,-2.5446,-2.5447,-2.5447,0,-2.5248,-2.5264,-2.5303,-2.5317,-2.5325,-2.5344,-2.5362,-2.5379,-2.5394,-2.5397,-2.541,-2.5408,-2.5433,-2.5416,-2.5451,-2.5433,-2.5444,-2.545,-2.5451,-2.5453,-2.5433,-2.5464,-2.5518,-2.5524,-2.5456,-2.5455,-2.5455,0,-2.5277,-2.5309,-2.5336,-2.5344,-2.5362,-2.5375,-2.5383,-2.5397,-2.5409,-2.5426,-2.5434,-2.5454,-2.5464,-2.548,-2.5484,-2.5471,-2.5519,-2.5502,-2.5522,-2.5522,-2.5531,-2.553,-2.5588,-2.554,-2.554,-2.554,-2.5539,0,-2.5319,-2.5343,-2.535,-2.5366,-2.5394,-2.5396,-2.5423,-2.543,-2.5443,-2.5462,-2.5459,-2.5476,-2.5481,-2.55,-2.5503,-2.5532,-2.5537,-2.554,-2.554,-2.554,-2.5539,-2.5546,-2.5543,-2.5541,-2.5541,-2.554,-2.554,0,-2.5356,-2.5361,-2.5391,-2.5406,-2.541,-2.5429,-2.5442,-2.5459,-2.5465,-2.5488,-2.5494,-2.5503,-2.5526,-2.5531,-2.5558,-2.5561,-2.5594,-2.5592,-2.5589,-2.5588,-2.5608,-2.5606,-2.5671,-2.5679,-2.5626,-2.5627,-2.5627,0,-2.5382,-2.54,-2.5417,-2.5429,-2.5438,-2.5457,-2.547,-2.5474,-2.5487,-2.5506,-2.5521,-2.5543,-2.556,-2.5596,-2.5605,-2.5626,-2.5625,-2.5646,-2.5628,-2.5627,-2.5624,-2.5623,-2.5625,-2.5649,-2.565,-2.565,-2.5651,0,-2.5427,-2.5429,-2.5447,-2.5466,-2.5481,-2.5497,-2.5512,-2.5522,-2.5528,-2.5543,-2.5566,-2.558,-2.5607,-2.5629,-2.565,-2.5659,-2.5656,-2.5657,-2.5662,-2.5661,-2.5658,-2.566,-2.5597,-2.5655,-2.5654,-2.5654,-2.5654,-2.5654,-2.5459,-2.5475,-2.549,-2.551,-2.5522,-2.5536,-2.5552,-2.5561,-2.5579,-2.5602,-2.5603,-2.5628,-2.5644,-2.5672,-2.5682,-2.5702,-2.5696,-2.5704,-2.5706,-2.5708,-2.5709,-2.5656,-2.5706,-2.5706,-2.5706,-2.5706,-2.5706,0,-2.5504,-2.5513,-2.5532,-2.5553,-2.5569,-2.5565,-2.5582,-2.5596,-2.5617,-2.5632,-2.565,-2.5676,-2.5698,-2.571,-2.5731,-2.5745,-2.5744,-2.5751,-2.5749,-2.5752,-2.5714,-2.5706,-2.5751,-2.5751,-2.5751,-2.5751,-2.5751,-2.5751,-2.5529,-2.5557,-2.5561,-2.5594,-2.5604,-2.5627,-2.5637,-2.5651,-2.5663,-2.5692,-2.571,-2.5718,-2.5731,-2.5754,-2.5775,-2.5777,-2.5785,-2.5793,-2.5795,-2.5759,-2.5754,-2.575,-2.5743,-2.5794,-2.5795,-2.5831,-2.5831,-2.5832]},{"header":{"parameterUnit":"m.s-1","parameterCategory":1,"la1":30.2991,"la2":30.254,"lo1":-89.0895,"lo2":-89.0444,"dy":0.0017,"dx":0.0017,"nx":28,"ny":28,"refTime":"2025-03-17T03:00:00:Z","depth":0,"parameterNumber":3,"parameterNumberName":"V-component_of_WINDS"},"data":[0,0,0,0,0,0,0,0,0,0,0,0,0,0,0,0,0,0,0,0,0,0,0,0,0,0,0,0,0,0,0,0,0,0,0,0,0,0,0,0,0,0,0,0,0,0,0,0,0,0,0,0,0,0,0,0,0,0,5.5738,5.5738,0,5.5756,5.5756,5.5756,5.5748,5.5747,5.5747,5.5746,5.5762,5.5763,5.5764,0,0,0,0,0,0,0,0,0,0,0,0,0,5.5697,5.5697,5.5738,5.5738,5.5738,5.5755,5.5756,5.5756,5.5748,5.5747,5.5747,5.5746,5.5762,5.5763,5.5764,0,0,0,0,0,0,0,0,0,0,0,0,0,5.5714,5.5698,5.5738,5.5736,5.5736,5.5755,5.5756,5.5756,5.5748,5.5747,5.5747,5.5746,5.5762,5.5763,5.5764,5.5785,0,0,5.5768,5.5769,0,0,0,0,0,0,0,0,5.5713,5.5716,5.5736,5.5737,5.5737,5.5749,5.5747,5.5766,5.5748,5.5743,5.5746,5.5746,5.5758,5.576,5.5764,5.5786,5.5786,5.5768,5.5769,5.5769,5.577,0,0,0,0,0,0,0,5.5712,5.5715,5.5745,5.5737,5.5737,5.5735,5.5736,5.575,5.5754,5.5744,5.5743,5.5746,5.5758,5.5763,5.5765,5.5787,5.5768,5.5769,5.577,5.577,5.5828,5.5829,0,0,0,0,0,0,5.5711,5.5714,5.5744,5.5745,5.5723,5.5736,5.5738,5.5745,5.5754,5.5755,5.5746,5.5745,5.5761,5.5763,5.5765,5.5791,5.5769,5.5771,5.5771,5.5827,5.5828,5.5829,0,0,0,0,0,0,5.571,5.5714,5.5743,5.573,5.5733,5.5737,5.5746,5.5746,5.5751,5.5756,5.5756,5.5751,5.5761,5.5763,5.5781,5.5792,5.5771,5.5772,5.5826,5.5827,5.5829,5.5843,0,0,0,0,0,0,5.5709,5.5714,5.5722,5.573,5.5734,5.5759,5.5747,5.5747,5.5754,5.5753,5.576,5.5761,5.5761,5.5779,5.5782,5.5793,5.5773,5.5825,5.5827,5.5828,5.5842,5.5845,5.5847,0,0,0,0,0,5.5708,5.5724,5.5722,5.5726,5.5744,5.576,5.5762,5.5762,5.5755,5.5763,5.5766,5.5761,5.579,5.5781,5.5784,5.5796,5.5825,5.5826,5.5828,5.584,5.5844,5.5847,0,0,0,0,0,0,5.5715,5.5725,5.5723,5.5742,5.5751,5.5758,5.5768,5.5765,5.5775,5.5773,5.5772,5.5774,5.5792,5.5796,5.5785,5.5817,5.5806,5.5809,5.5814,5.5818,5.5821,5.5819,5.5774,0,0,0,0,0,5.572,5.5732,5.5739,5.5756,5.576,5.5764,5.577,5.577,5.5778,5.5781,5.5785,5.5793,5.5804,5.5811,5.5821,5.5842,5.5844,5.5852,5.5855,5.5857,5.5859,5.5872,5.5876,5.5835,5.5835,5.5835,0,0,5.5728,5.5735,5.5742,5.5758,5.5764,5.5777,5.5766,5.578,5.5789,5.5783,5.58,5.5803,5.5812,5.5831,5.584,5.5835,5.5871,5.5859,5.5861,5.5862,5.5874,5.5878,5.5881,5.5836,5.5836,5.5835,0,0,5.575,5.5756,5.5772,5.5779,5.5789,5.5791,5.5795,5.5804,5.5806,5.5824,5.582,5.5831,5.5849,5.5856,5.5862,5.5889,5.5885,5.5892,5.5907,5.5919,5.5922,5.5925,5.5935,5.5939,5.5894,5.5894,5.5894,0,5.5759,5.5779,5.578,5.5794,5.5802,5.5798,5.5814,5.582,5.5832,5.5837,5.5831,5.5856,5.5861,5.5883,5.589,5.5895,5.5899,5.5891,5.5922,5.5925,5.5927,5.5937,5.5941,5.5895,5.5895,5.5895,5.5895,0,5.579,5.5803,5.5815,5.5829,5.5837,5.5852,5.5856,5.5864,5.5864,5.5867,5.5885,5.5892,5.5904,5.5909,5.5908,5.5931,5.5928,5.5922,5.5911,5.5932,5.5942,5.5945,5.5897,5.5896,5.5896,5.5896,0,0,5.5816,5.5832,5.5836,5.5843,5.5855,5.5865,5.5881,5.5894,5.5902,5.5911,5.5924,5.5941,5.5936,5.5943,5.5943,5.5953,5.5976,5.5946,5.5946,5.5952,5.6003,5.6008,5.6012,5.5973,5.5974,5.5975,5.6003,0,5.5839,5.5867,5.5869,5.5894,5.5908,5.5905,5.5919,5.5927,5.5931,5.5943,5.5947,5.596,5.5952,5.5956,5.5967,5.5971,5.5986,5.5969,5.5986,5.5986,5.5984,5.6017,5.6022,5.6048,5.6006,5.6007,5.6007,0,5.587,5.5882,5.5909,5.5921,5.5926,5.5938,5.5952,5.5963,5.5973,5.5975,5.5984,5.5983,5.5999,5.5987,5.601,5.5998,5.6005,5.6008,5.6009,5.6011,5.5998,5.602,5.6056,5.606,5.6013,5.6013,5.6012,0,5.5888,5.591,5.593,5.5936,5.5949,5.5958,5.5964,5.5974,5.5983,5.5994,5.6,5.6012,5.6019,5.6029,5.6032,5.6023,5.6055,5.6043,5.6057,5.6057,5.6063,5.6063,5.6102,5.6067,5.6067,5.6067,5.6067,0,5.5914,5.593,5.5938,5.595,5.5969,5.5972,5.599,5.5996,5.6005,5.6018,5.6016,5.6028,5.603,5.6043,5.6045,5.6064,5.6067,5.6069,5.6069,5.6069,5.6069,5.6074,5.6072,5.6068,5.6068,5.6068,5.6068,0,5.5936,5.5942,5.5963,5.5976,5.5979,5.5993,5.6003,5.6014,5.6019,5.6035,5.6039,5.6046,5.6061,5.6065,5.6082,5.6083,5.6106,5.6104,5.6103,5.6103,5.6117,5.6116,5.616,5.6166,5.6128,5.6128,5.6128,0,5.5953,5.5966,5.598,5.599,5.5997,5.6011,5.602,5.6024,5.6033,5.6047,5.6057,5.6073,5.6085,5.6109,5.6115,5.6129,5.6128,5.6142,5.6129,5.613,5.6129,5.6128,5.613,5.6145,5.6145,5.6145,5.6146,0,5.5982,5.5984,5.5998,5.6014,5.6025,5.6037,5.6049,5.6056,5.6061,5.6072,5.6089,5.6098,5.6117,5.6132,5.6146,5.6152,5.615,5.615,5.6154,5.6154,5.6153,5.6155,5.611,5.6149,5.6148,5.6148,5.6148,5.6148,5.6002,5.6014,5.6027,5.6043,5.6052,5.6064,5.6076,5.6083,5.6096,5.6113,5.6114,5.6132,5.6143,5.6162,5.6169,5.6183,5.6178,5.6184,5.6185,5.6187,5.6188,5.6151,5.6185,5.6185,5.6185,5.6185,5.6185,0,5.6032,5.604,5.6055,5.6072,5.6085,5.6083,5.6096,5.6107,5.6123,5.6134,5.6147,5.6166,5.6181,5.6189,5.6204,5.6214,5.6213,5.6218,5.6217,5.6219,5.6191,5.6186,5.6218,5.6218,5.6218,5.6218,5.6218,5.6218,5.6049,5.607,5.6074,5.61,5.6109,5.6127,5.6135,5.6145,5.6155,5.6176,5.619,5.6195,5.6205,5.6222,5.6235,5.6237,5.6243,5.6248,5.625,5.6224,5.622,5.6217,5.6213,5.625,5.625,5.6276,5.6277,5.6277]}]]